Flag for U.S.A. Weather past 2 weeks in Chattanooga, Tennessee, U.S.A.

Now
60 °F

Clear.


Feels Like: 60 °F
Forecast: 60 / 82 °F
Wind: No wind

Location: Lovell Field

Current Time: Jul 30, 2014 at 6:07:40 AM

Latest Report: Jul 30, 2014 at 4:53 AM


Visibility: 10 mi

Pressure: 30.06 "Hg

Humidity: 78%

Dew point: 53 °F

Location of ChattanoogaLocation

Historic Weather in Chattanooga — Graph

°F

Chattanooga temperature yesterday

Maximum temperature yesterday: 80 °F (at 3:53 PM)
Minimum temperature yesterday: 65 °F (at 5:53 AM)
Average temperature yesterday: 72 °F

Past Weeks' High & Low Weather Summary

 TemperatureHumidityPressure
High93 °F (Jul 27, 3:53 PM)94% (Jul 21, 5:53 AM)30.15 "Hg (Jul 21, 5:53 AM)
Low60 °F (Jul 17, 4:53 AM)31% (Jul 25, 5:53 PM)29.83 "Hg (Jul 15, 4:53 PM)
Average76 °F69%30.00 "Hg
* Reported Jul 15 4:53 AM — Jul 30 4:53 AM, Chattanooga, Weather by CustomWeather, © 2014

Note: Actual official high and low records may vary slightly from our data, if they occured in-between our weather recording intervals... More about our weather records

Advertising

Chattanooga weather history for previous 24 hours

 ConditionsComfort  
Time TempWeatherWind HumidityBarometerVisibility
4:53 AM
Jul 30
60 °FClear.No wind78%30.06 "Hg10 mi
3:53 AM62 °FClear.No wind75%30.06 "Hg10 mi
2:53 AM61 °FClear.3 mph78%30.06 "Hg10 mi
1:53 AM64 °FClear.No wind73%30.06 "Hg10 mi
12:53 AM64 °FClear.3 mph73%30.07 "Hg10 mi
11:53 PM
Jul 29
65 °FClear.5 mph70%30.07 "Hg10 mi
10:53 PM66 °FClear.6 mph68%30.06 "Hg10 mi
9:53 PM68 °FClear.6 mph61%30.05 "Hg10 mi
8:53 PM72 °FSunny.8 mph49%30.04 "Hg10 mi
7:53 PM75 °FPassing clouds.12 mph42%30.04 "Hg10 mi
6:53 PM77 °FScattered clouds.15 mph40%30.03 "Hg10 mi
5:53 PM79 °FScattered clouds.14 mph34%30.02 "Hg10 mi
4:53 PM80 °FScattered clouds.16 mph36%30.01 "Hg10 mi
3:53 PM80 °FScattered clouds.13 mph36%30.01 "Hg10 mi
2:53 PM79 °FScattered clouds.3 mph38%30.01 "Hg10 mi
1:53 PM78 °FScattered clouds.14 mph42%30.03 "Hg10 mi
12:53 PM77 °FScattered clouds.9 mph44%30.04 "Hg10 mi
11:53 AM76 °FScattered clouds.9 mph48%30.05 "Hg10 mi
10:53 AM75 °FScattered clouds.10 mph48%30.03 "Hg10 mi
9:53 AM72 °FScattered clouds.7 mph64%30.02 "Hg10 mi
8:53 AM70 °FPassing clouds.8 mph68%30.01 "Hg10 mi
7:53 AM67 °FPassing clouds.6 mph76%29.99 "Hg10 mi
6:53 AM65 °FPassing clouds.8 mph78%29.98 "Hg10 mi
Weather by CustomWeather, © 2014

See weather overviewHow to use our weather pages